Regional Weather Roundup
Issued by NWS

Home | Current Version | Previous Version | Graphics & Text | Print | Product List | Glossary Off
Versions: 1 2 3 4 5 6 7 8 9 10 11 12 13 14 15 16 17 18 19 20 21 22 23 24 25 26 27 28 29 30 31 32 33 34 35 36 37 38 39 40 41 42 43 44 45 46 47 48 49 50

000
ASUS43 KMKX 240400
RWRWI

WISCONSIN REGIONAL WEATHER ROUNDUP
NATIONAL WEATHER SERVICE MILWAUKEE/SULLIVAN WI
1000 PM CST THU FEB 23 2017

NOTE: "FAIR" INDICATES FEW OR NO CLOUDS BELOW 12,000 FEET WITH NO
SIGNIFICANT WEATHER AND/OR OBSTRUCTIONS TO VISIBILITY.

WIZ001-002-006>008-014>016-023>028-240500-
NORTHWEST WISCONSIN

CITY           SKY/WX    TMP DP  RH WIND       PRES   REMARKS
SUPERIOR ARPT  CLEAR     26  18  70 N6        29.98F WCI  20
ASHLAND        CLEAR     27  20  75 N9        29.95F WCI  18
HAYWARD        CLEAR     27  21  78 N6        29.95R WCI  20
SIREN          CLOUDY    28  21  77 N12       29.96R WCI  17
CUMBERLAND     CLOUDY    28  21  74 NE13G18   29.91R WCI  18
RICE LAKE      CLOUDY    29  24  80 N13       29.93R WCI  19
CHETEK         CLOUDY    30  25  81 N5        29.90S WCI  25
LADYSMITH      MOCLDY    31  26  81 N10       29.91R WCI  22
EAU CLAIRE     NOT AVBL
MENOMONIE      CLOUDY    33  26  75 N9        29.88R WCI  26
NEW RICHMOND   CLOUDY    30  23  76 NE14      29.90S WCI  19
OSCEOLA        CLOUDY    30  23  77 N12G18    29.95S WCI  20
$$

WIZ003>005-009-010-017-018-240500-
NORTH CENTRAL WISCONSIN

CITY           SKY/WX    TMP DP  RH WIND       PRES   REMARKS
MANITOWISH WTR MOCLDY    26  26 100 NE6       29.88F WCI  19
ARBOR VITAE    CLOUDY    29  25  85 NE3         N/A
WOODRUFF       CLOUDY    29  25  85 NE3         N/A
RHINELANDER    CLOUDY    30  24  78 NE9       29.87F WCI  22
EAGLE RIVER    CLOUDY    27  22  79 NE6       29.91F WCI  21
LAND O LAKES   CLOUDY    27  24  87 N3        29.95R
PHILLIPS       CLOUDY    28  24  85 NE8       29.89F WCI  20
TOMAHAWK       CLOUDY    29  23  78 N8        29.88F WCI  21
MEDFORD        CLOUDY    31  25  78 NE12G17   29.86S WCI  22
MERRILL        NOT AVBL
$$

WIZ029-030-035-036-043>047-240500-
CENTRAL WISCONSIN

CITY           SKY/WX    TMP DP  RH WIND       PRES   REMARKS
WAUSAU         CLOUDY    34  26  72 E10       29.84F WCI  26
MOSINEE        FLURRIES  36  27  69 NE12      29.86F WCI  27
MARSHFIELD     FLURRIES  34  27  75 NE9       29.83F WCI  27
STEVENS POINT  CLOUDY    34  25  69 E12       29.87S WCI  26
WAUPACA        CLOUDY    37  30  75 NE5       29.90R WCI  34
WAUTOMA        LGT RAIN  35  29  78 E17       29.84F WCI  25
WISC RAPIDS    CLOUDY    38  28  67 E15G23    29.84F WCI  29
CAMP DOUGLAS   NOT AVBL
$$

WIZ011>013-019>022-031-037>040-048>050-240500-
NORTHEAST WISCONSIN

CITY           SKY/WX    TMP DP  RH WIND       PRES   REMARKS
ANTIGO         CLOUDY    32  27  82 NE9       29.88F WCI  24
SHAWANO        CLOUDY    35  28  74 NE6       29.92S WCI  30
OCONTO         CLOUDY    34  25  69 NE7       29.92S WCI  28
STURGEON BAY   CLOUDY    34  25  69 NE13      29.93S WCI  25
GREEN BAY      CLOUDY    35  28  75 NE13      29.92R WCI  26
MANITOWOC      NOT AVBL
APPLETON       CLOUDY    36  25  64 NE10      29.88R WCI  28
CLINTONVILLE   CLOUDY    34  27  75 NE6       29.91S WCI  29
OSHKOSH        LGT SNOW  33  28  81 NE12      29.88R WCI  24
$$

WIZ032>034-041-042-053>061-240500-
SOUTHWEST WISCONSIN

CITY           SKY/WX    TMP DP  RH WIND       PRES   REMARKS
LA CROSSE      LGT RAIN  41  27  57 NE12      29.81R
SPARTA         CLOUDY    40  28  60 NE15G22   29.81F WCI  32
VIROQUA        CLOUDY    35  34  94 NE12      29.79R WCI  27
BOSCOBEL       LGT SNOW  35  32  88 NE10G21   29.72F FOG     WCI  27
PRAIRIE DU CHI LGT SNOW  34  33  96 NE9G16    29.73F WCI  26
PLATTEVILLE    CLOUDY    36  36 100 NE22G28   29.70F WCI  24
$$

WIZ056-057-062-063-064-067-068-240500-
SOUTH CENTRAL WISCONSIN

CITY           SKY/WX    TMP DP  RH WIND       PRES   REMARKS
REEDSBURG      LGT RAIN  33  33 100 NE13      29.78F WCI  24
BARABOO/DELLS  LGT SNOW  32  32  99 NE12G17   29.82F WCI  23
LONE ROCK      LGT SNOW  34  30  86 NE16G22   29.75F FOG     WCI  23
MINERAL POINT  LGT RAIN  34  34 100 NE20G31   29.69F WCI  22
MADISON        LGT SNOW  33  30  88 NE22G29   29.77F FOG     WCI  21
MIDDLETON      CLOUDY    35  34  99 NE14G20   29.81R WCI  25
WATERTOWN      CLOUDY    33  33 100 NE14G20   29.78F WCI  23
MONROE         HVY RAIN  34  32  93 N14G26    29.76R WCI  24
JANESVILLE     LGT RAIN  34  34 100 NE15G21   29.70F WCI  24
$$

WIZ051-052-058>065-066-070>072-240500-
SOUTHEAST WISCONSIN

CITY           SKY/WX    TMP DP  RH WIND       PRES   REMARKS
MILWAUKEE      LGT RAIN  37  33  85 NE15G29   29.77F WCI  28
WAUKESHA       LGT RAIN  32  32 100 NE16G22   29.78F WCI  21
MILWAUKEE/TIMM RAIN      34  32  93 NE16G23   29.80F WCI  23
RACINE         LGT RAIN  37  34  89 NE18      29.76F WCI  27
KENOSHA        RAIN      37  34  89 NE18G28   29.73F FOG     WCI  27
FOND DU LAC    LGT SNOW  33  29  85 NE13      29.86F VSB 1   WCI  24
SHEBOYGAN      LGT SNOW  33  31  92 NE21      29.86F VSB 1   WCI  21
WEST BEND      FLURRIES  32  32 100 NE10      29.83S WCI  24
JUNEAU         MIX PCPN  32  31  96 N17       29.82F WCI  21
$$

LSZ147-162-240500-
LAKE SUPERIOR

STATION/POSITION TIME  TEMP    WIND        PRES    WAVE
                       AIR SEA DIR/SP/G            HT/PER
                 (UTC) (F)     (DEG/KT/KT) (MB)    (FT/S)
DEVILS ISLAND    0300   31     350/ 19/ 20 1016.8R
PORT WING        0330   29      10/ 16/ 19 1015.6F
SAXON HARBOR     0340   32      10/ 13/ 15 1014.2F
$$

LMZ867-665-643>646-240500-
LAKE MICHIGAN

STATION/POSITION TIME  TEMP    WIND        PRES    WAVE
                       AIR SEA DIR/SP/G            HT/PER
                 (UTC) (F)     (DEG/KT/KT) (MB)    (FT/S)
CHAMBERS ISLAND  0340   33      40/ 10/ 13 1013.2S
NORTHPORT PIER   0340   33      30/  8/ 11 1013.9S
KEWAUNEE LAKESHO 0330   36      40/ 13/ 21 1011.9F
SHEBOYGAN LAKESH 0300   35      40/ 24/ 26 1011.3F
PORT WASHINGTON  0330   35      30/ 12/ 20 1011.5R
MILWAUKEE LAKESH 0320   36      20/ 18/ 20   N/A
KENOSHA   LAKESH 0300   36      20/ 20/ 24 1008.5
$$

TC  - TEMPERATURE IN CELSIUS
VSB - VISIBILITY IN STATUTE MILES
WCI - WIND CHILL INDEX
HX  - HEAT INDEX




USA.gov is the U.S. government's official web portal to all federal, state and local government web resources and services.